User: anonymous   Login
Location: Unspecified
(0.0000°N, 0.0000°E)
Time: 10:06:05
(UTC+00:00)
Language:

OBJECT R - Orbit

View from above orbital plane
View from above orbital plane
View from above satellite
View from above satellite

Ground track
Ground track

The orbit is defined by the following mean orbital elements,

1 66681U          26145.16247550 +.00000000 +00000-0 +70880-3 0 00004
2 66681  97.4121 219.3590 0006864 102.5481 257.6524 15.23164777    01
Epoch (UTC): 25 May 2026 03:53:57
Eccentricity: 0.0006864
inclination: 97.4121°
perigee height: 492 km
apogee height: 501 km
right ascension of ascending node: 219.3590°
argument of perigee: 102.5481°
revolutions per day: 15.23164777
mean anomaly at epoch: 257.6524°

The dashed part of the orbit path shows where the satellite is in the earth's shadow,  

DLR